Dewpoint
72 72 71 64 60 58 54 54 51 53 55 58 59 59 59 61 55 54 68 70 70 71 72 72 75 75 76 77 77 77 77 77 77 77 76 75 75 75 75 75 75 74 74 74 74 73 73 73 73
72 70 67 63 57 52 52 54 52 55 58 60 58 59 59 59 63 67 68 70 70 71 72 73 75 76 76 77 77 77 76 75 77 77 77 76 75 75 75 74 74 74 74 74 73 73 73 73 73
70 66 64 59 56 52 51 55 56 59 59 59 58 60 60 62 65 66 69 70 70 71 72 73 76 76 76 76 77 77 77 76 77 76 75 75 75 75 74 74 74 74 74 73 73 73 73 72 72
67 68 65 58 55 54 52 57 58 58 58 59 58 59 62 65 65 67 70 69 70 71 72 75 76 75 75 76 76 75 75 75 76 75 75 75 75 74 74 74 74 74 74 74 73 72 72 72 72
68 66 59 57 52 51 54 57 58 57 57 58 59 59 60 64 66 68 68 68 70 71 74 74 76 76 76 76 75 75 75 75 76 75 75 75 75 74 73 73 73 73 73 74 73 72 72 72 72
65 65 56 51 52 49 54 57 56 56 58 59 60 60 61 65 66 66 68 69 71 73 74 74 76 77 76 75 75 75 75 75 75 75 75 75 75 74 73 73 72 72 73 73 73 72 72 71 71
60 59 53 52 53 52 54 57 56 58 58 58 60 59 61 62 64 67 68 69 71 73 73 73 74 74 76 77 75 74 75 75 75 75 75 75 74 74 73 72 72 72 72 72 72 72 72 72 72
63 60 52 49 45 46 54 57 58 59 58 60 60 59 59 62 65 67 68 69 70 72 73 73 73 74 75 75 75 74 75 75 75 75 75 75 74 74 73 75 74 73 72 72 72 72 74 74 74
61 54 48 48 43 46 54 55 58 57 58 58 60 60 62 63 64 66 66 68 69 71 72 73 73 74 74 73 73 75 75 75 75 74 75 75 73 73 73 74 74 74 73 73 72 73 72 74 74
55 51 47 48 45 44 51 54 55 56 58 58 59 61 62 63 64 64 66 67 69 70 71 72 73 73 73 73 72 73 73 73 73 73 73 74 73 71 71 74 75 74 73 74 73 73 69 69 71
55 50 49 47 47 46 52 55 56 56 56 57 59 61 62 63 63 64 66 68 69 69 71 72 72 73 72 71 72 72 72 72 72 71 71 73 73 72 73 73 74 71 73 72 73 73 70 71 71
49 48 45 43 44 41 52 53 55 55 54 57 60 62 62 62 63 64 65 67 68 69 70 71 72 72 71 70 72 71 71 71 71 71 71 72 72 71 71 72 71 72 72 72 73 72 71 71 71
48 46 45 44 42 41 41 44 53 52 55 58 60 62 61 61 63 64 65 66 67 68 69 70 71 71 70 70 70 70 71 71 71 70 71 72 69 70 70 71 72 72 72 71 71 71 71 71 69
48 46 45 43 39 41 38 42 46 54 56 57 59 60 60 62 63 63 63 64 66 67 67 68 68 71 70 70 69 70 70 71 71 70 72 71 70 71 71 71 70 71 71 71 73 71 71 71 71
32 41 45 44 41 40 39 45 51 55 56 54 54 58 61 62 62 62 63 64 64 64 66 66 67 69 70 69 69 71 71 70 70 70 71 71 71 71 71 71 71 71 72 71 71 70 71 70 70
21 24 23 28 41 40 38 42 53 55 55 54 54 55 57 60 62 62 64 64 64 65 66 68 67 69 69 70 71 70 69 69 70 71 71 71 72 72 72 71 71 72 72 72 70 69 68 64 61
20 17 19 21 29 40 42 42 51 55 55 55 55 55 56 56 57 61 64 64 64 64 66 68 67 70 70 71 72 69 69 69 70 71 71 71 73 73 72 71 72 72 72 71 70 68 66 60 59
17 18 19 21 26 39 41 40 47 54 55 55 55 56 56 56 56 59 64 64 63 64 66 68 67 68 69 71 72 71 70 71 71 69 70 70 73 73 72 71 72 71 71 70 68 67 64 61 62
17 18 19 21 25 41 39 39 42 51 53 54 54 55 55 55 56 57 63 64 63 66 67 68 67 68 68 71 71 71 70 71 71 70 71 72 73 74 72 71 71 71 70 69 68 63 59 59 63
16 15 16 20 23 38 42 39 40 47 50 52 53 53 54 55 55 57 60 62 63 65 66 67 68 69 69 69 70 70 70 71 71 71 72 72 72 73 71 71 71 71 71 68 62 61 60 62 62
16 14 15 19 24 41 42 43 44 43 46 49 51 52 53 53 53 55 57 61 62 62 66 66 68 70 69 71 71 71 71 71 71 70 71 71 72 73 72 71 71 71 69 63 62 62 60 60 62
16 17 16 19 23 31 39 36 44 44 41 43 48 50 51 53 53 55 56 60 61 63 65 65 68 71 70 71 70 69 69 68 69 70 71 71 73 73 72 71 70 67 68 63 63 64 64 59 58
17 18 19 19 21 29 39 37 39 44 44 43 45 48 50 51 52 53 56 57 61 62 64 66 67 71 71 71 70 69 69 69 69 69 69 71 72 72 72 72 70 66 66 64 64 63 64 63 62
18 14 15 21 21 28 26 36 36 39 43 44 46 46 49 50 52 52 55 56 59 62 64 66 67 70 71 71 70 69 69 69 68 68 70 71 71 71 72 71 68 66 66 66 64 62 63 64 63
14 10 10 11 13 17 28 34 33 38 44 44 44 45 46 49 50 52 54 55 58 61 64 66 68 69 70 71 70 69 69 69 68 68 70 70 69 69 70 70 67 64 66 65 64 65 63 62 62
10 7 9 10 15 17 22 30 33 37 42 46 45 46 44 46 48 51 53 56 57 60 64 67 67 67 69 69 71 71 70 70 70 69 69 70 69 68 69 68 66 64 66 66 65 64 64 63 62
13 7 7 10 24 19 21 28 31 39 40 45 45 46 45 44 46 49 53 55 57 60 64 67 68 67 70 70 69 69 71 71 72 71 68 68 67 67 69 68 67 65 64 67 66 64 64 65 63
12 10 10 7 4 6 14 21 24 30 39 42 45 45 45 45 44 46 48 54 57 59 63 67 68 67 69 70 70 70 70 70 72 72 70 67 67 67 68 68 67 66 64 67 66 65 64 64 64
14 8 19 5 6 5 9 10 21 25 35 40 44 44 44 44 46 46 47 51 55 59 62 67 68 68 69 70 70 70 71 70 70 73 71 70 67 68 67 69 67 67 65 65 66 64 65 64 64
18 13 9 9 8 14 7 9 21 22 33 42 42 43 43 44 46 48 47 48 53 58 60 65 69 68 69 71 71 71 71 71 71 70 72 71 70 68 68 68 68 68 66 66 66 65 64 65 64
Lifted_Index
-3 -3 -2 -1 -1 -1 -1 -1 -1 -1 -1 -1 -1 -1 -0 -0 0 1 1 1 -0 -1 -1 -2 -3 -4 -4 -5 -6 -6 -6 -6 -6 -7 -6 -6 -6 -6 -5 -5 -6 -6 -6 -6 -6 -5 -5 -5 -5
-3 -3 -1 -1 -1 -1 -1 -1 -1 -1 -1 -1 -1 -1 -0 -0 -0 0 0 0 -0 -1 -2 -2 -3 -4 -4 -5 -6 -6 -6 -6 -6 -6 -6 -6 -6 -6 -5 -5 -5 -5 -6 -6 -6 -6 -5 -5 -5
-3 -2 -1 -1 -1 -1 -1 -1 -2 -2 -1 -1 -1 -1 -1 -0 -0 -0 -0 -0 -1 -1 -2 -3 -4 -4 -5 -5 -6 -6 -6 -6 -6 -6 -6 -6 -6 -6 -5 -5 -5 -5 -6 -6 -6 -6 -5 -5 -5
-2 -2 -1 -0 -0 -1 -1 -2 -2 -2 -2 -1 -1 -1 -1 -1 -1 -1 -1 -1 -1 -2 -3 -4 -4 -4 -5 -5 -6 -5 -5 -6 -6 -6 -6 -6 -6 -6 -5 -5 -5 -6 -6 -6 -6 -5 -5 -5 -5
-3 -2 -1 -1 -0 -1 -1 -2 -2 -2 -2 -1 -1 -1 -1 -1 -1 -2 -2 -2 -2 -3 -4 -4 -5 -5 -5 -5 -5 -5 -5 -6 -6 -6 -6 -6 -6 -6 -5 -5 -6 -6 -6 -6 -6 -5 -5 -5 -5
-2 -2 -1 -1 -1 -1 -2 -2 -2 -2 -2 -1 -1 -1 -1 -1 -1 -1 -2 -2 -3 -3 -4 -5 -5 -5 -5 -5 -5 -5 -5 -6 -6 -6 -6 -6 -6 -6 -5 -5 -6 -6 -6 -6 -6 -5 -5 -5 -5
-1 -1 -1 -1 -1 -2 -2 -2 -3 -3 -2 -2 -1 -1 -1 -1 -1 -1 -2 -2 -3 -4 -4 -5 -5 -5 -5 -5 -5 -5 -5 -6 -6 -6 -6 -6 -6 -5 -5 -5 -5 -6 -6 -6 -5 -5 -5 -5 -5
-2 -1 -1 -0 -1 -2 -2 -3 -3 -3 -2 -2 -2 -1 -1 -1 -1 -2 -2 -2 -3 -4 -4 -4 -5 -5 -5 -5 -5 -5 -5 -5 -6 -6 -6 -6 -5 -5 -5 -5 -5 -5 -5 -5 -5 -5 -5 -5 -5
-2 -1 -1 -0 -1 -1 -2 -2 -2 -2 -2 -2 -2 -2 -2 -2 -2 -2 -2 -3 -3 -3 -4 -4 -4 -5 -5 -5 -4 -5 -5 -5 -5 -5 -5 -5 -5 -5 -5 -5 -5 -5 -5 -5 -5 -5 -4 -4 -4
-2 -1 -1 -1 -1 -1 -1 -2 -2 -2 -2 -3 -2 -2 -2 -2 -3 -3 -3 -3 -3 -3 -3 -4 -4 -4 -4 -4 -4 -4 -4 -5 -4 -4 -4 -5 -4 -4 -4 -5 -5 -5 -5 -5 -5 -4 -4 -3 -4
-1 -1 -1 -1 -1 -1 -2 -2 -2 -2 -2 -3 -2 -2 -2 -3 -3 -3 -3 -3 -3 -3 -3 -3 -4 -4 -3 -4 -4 -4 -4 -4 -4 -3 -4 -4 -4 -4 -4 -5 -5 -4 -5 -5 -5 -4 -3 -3 -4
-0 -0 -1 -1 -1 -1 -2 -2 -2 -2 -2 -2 -2 -3 -3 -3 -3 -3 -3 -3 -3 -3 -3 -3 -4 -3 -3 -3 -3 -3 -3 -3 -3 -3 -3 -4 -4 -4 -4 -4 -4 -4 -4 -4 -4 -4 -3 -4 -4
0 0 -1 -1 -1 -1 -2 -2 -2 -2 -2 -2 -2 -2 -3 -3 -3 -3 -3 -3 -3 -3 -3 -3 -4 -4 -3 -3 -3 -3 -3 -3 -3 -3 -3 -4 -4 -4 -4 -4 -4 -4 -4 -4 -4 -4 -4 -4 -4
2 2 0 -1 -1 -1 -1 -1 -1 -2 -2 -2 -2 -2 -2 -3 -3 -3 -3 -3 -3 -3 -3 -3 -3 -3 -3 -3 -3 -3 -3 -3 -3 -3 -4 -4 -4 -4 -4 -4 -4 -4 -4 -4 -4 -4 -4 -4 -4
4 3 2 0 -0 -1 -1 -1 -2 -2 -2 -2 -2 -2 -2 -3 -3 -2 -2 -2 -2 -2 -3 -3 -3 -3 -3 -3 -3 -4 -4 -4 -4 -4 -4 -4 -4 -4 -4 -4 -4 -4 -4 -4 -4 -3 -3 -3 -2
4 4 3 2 0 -0 -1 -1 -2 -2 -2 -2 -2 -1 -1 -2 -2 -2 -2 -2 -2 -2 -3 -3 -3 -3 -3 -4 -4 -4 -4 -3 -3 -4 -4 -4 -4 -4 -4 -3 -4 -4 -4 -4 -3 -3 -2 -1 -1
3 3 3 2 1 -0 -1 -1 -2 -2 -2 -2 -2 -2 -1 -1 -1 -1 -2 -2 -2 -2 -3 -3 -3 -4 -4 -4 -4 -4 -3 -3 -3 -4 -3 -4 -4 -4 -4 -3 -4 -4 -4 -3 -3 -2 -1 -0 0
3 3 2 2 0 -1 -1 -1 -2 -2 -2 -2 -2 -2 -1 -1 -1 -1 -1 -1 -2 -2 -2 -3 -3 -3 -3 -3 -4 -3 -3 -3 -4 -4 -3 -4 -4 -4 -4 -3 -3 -3 -3 -3 -3 -2 -1 1 1
3 2 2 1 1 -0 -1 -1 -1 -2 -2 -2 -2 -1 -1 -1 -0 -0 -1 -1 -1 -2 -2 -2 -3 -3 -3 -3 -3 -3 -3 -4 -4 -4 -4 -4 -4 -4 -4 -3 -3 -3 -3 -3 -2 -1 1 2 2
3 2 1 1 1 0 -1 -1 -1 -1 -1 -1 -1 -1 -1 -0 -0 -0 -1 -1 -1 -1 -2 -2 -2 -2 -2 -3 -3 -3 -3 -4 -4 -4 -4 -4 -4 -4 -3 -3 -3 -3 -3 -2 -1 0 2 2 1
4 3 1 1 1 1 -1 -1 -0 -0 -1 -1 -1 -1 -0 0 0 -0 -0 -1 -1 -1 -1 -2 -2 -2 -2 -3 -3 -3 -3 -4 -4 -4 -4 -4 -4 -4 -4 -3 -3 -3 -3 -2 -1 1 2 2 1
4 3 2 2 2 1 -0 -0 -0 -0 -0 -0 -0 -0 0 1 1 0 -0 -1 -1 -1 -1 -1 -2 -2 -3 -3 -3 -3 -3 -3 -3 -3 -4 -4 -4 -4 -4 -3 -3 -2 -2 -2 -0 1 2 2 1
5 4 3 2 2 2 1 1 1 0 0 1 0 0 0 1 1 0 -0 -0 -1 -1 -1 -1 -2 -2 -3 -3 -3 -3 -3 -3 -3 -3 -3 -4 -4 -4 -4 -3 -3 -3 -2 -1 0 1 1 1 1
6 4 3 2 1 1 1 2 2 1 1 1 1 1 1 1 1 0 -0 -0 -1 -1 -2 -2 -2 -3 -3 -3 -3 -3 -3 -3 -2 -3 -3 -3 -4 -4 -4 -4 -3 -3 -2 -1 1 1 1 0 0
6 5 2 1 1 1 1 2 3 2 1 1 0 0 0 0 0 0 0 -1 -1 -1 -2 -3 -3 -3 -3 -4 -4 -3 -3 -3 -3 -3 -3 -3 -3 -4 -4 -4 -3 -3 -2 -0 0 1 0 0 0
7 5 3 1 1 1 1 2 3 2 1 0 -0 -0 -0 0 0 0 -0 -1 -1 -2 -3 -3 -4 -4 -4 -4 -4 -4 -4 -4 -4 -4 -4 -3 -3 -4 -4 -4 -3 -3 -2 -1 -0 -0 0 0 0
6 5 4 3 1 1 1 2 3 2 1 0 -1 -1 -1 -0 -0 -0 -0 -1 -1 -2 -3 -4 -4 -4 -4 -4 -4 -4 -4 -4 -5 -5 -4 -4 -4 -4 -4 -3 -3 -3 -2 -2 -1 -1 -0 -0 0
6 5 5 4 2 1 1 2 3 3 2 0 -1 -1 -1 -1 -0 -1 -1 -1 -1 -2 -3 -4 -5 -5 -5 -5 -5 -4 -4 -4 -5 -5 -5 -5 -4 -4 -4 -3 -3 -3 -3 -2 -2 -1 -1 -1 -0
6 5 5 4 3 2 2 2 3 3 2 1 -0 -1 -1 -1 -1 -1 -1 -1 -1 -2 -3 -5 -5 -5 -5 -5 -5 -5 -4 -4 -5 -6 -6 -6 -5 -5 -4 -4 -4 -4 -4 -3 -3 -2 -2 -1 -1
5 5 5 4 4 3 2 2 3 3 2 1 0 -0 -1 -1 -1 -1 -1 -1 -1 -2 -3 -5 -6 -6 -6 -6 -6 -5 -5 -5 -5 -6 -6 -6 -6 -5 -5 -5 -4 -4 -4 -4 -3 -2 -2 -1 -1